Probability
100 100 100 97 0 0 0 0 0 0 0 0 0 0 0 0 0 0 0 35 3 48 90 100 100 100 100 100 100 100 100 100 100 100 97 97 97 100 100 100 100 100 100 100 100 100 97 100 100
100 100 97 13 0 0 0 0 0 0 0 0 0 0 0 0 0 0 32 32 23 71 97 100 100 100 100 100 100 100 100 100 100 100 100 97 97 100 100 100 100 100 100 100 100 100 97 100 94
100 100 61 6 0 0 0 0 0 0 0 0 0 0 0 0 0 0 45 42 35 81 97 100 100 100 100 100 100 100 100 100 100 100 100 97 97 97 94 100 100 97 97 90 94 97 100 100 97
94 58 3 0 0 0 0 0 0 0 0 0 0 0 0 0 0 29 68 58 52 77 97 100 100 100 100 100 100 100 100 100 100 100 100 100 97 97 97 97 97 97 87 84 90 94 94 100 100
48 10 0 0 0 0 0 0 0 0 0 0 0 0 0 0 16 71 74 45 35 74 100 100 100 100 100 100 100 100 100 100 100 97 97 100 100 90 94 90 87 84 77 81 81 94 90 94 100
0 0 0 0 0 0 0 0 0 0 0 3 0 0 0 0 45 71 58 29 42 71 97 100 100 100 100 100 100 100 100 100 100 100 97 94 97 97 94 71 58 42 32 29 58 84 84 90 100
0 0 0 0 0 0 0 0 0 0 0 0 0 0 0 0 3 39 48 42 55 77 87 97 100 100 100 100 100 100 100 100 100 100 100 94 90 94 94 68 39 10 3 3 10 29 61 68 81
0 0 0 0 0 0 0 0 0 0 0 0 0 0 0 0 0 3 48 71 81 84 77 94 97 100 100 100 100 100 100 100 100 100 100 97 97 100 97 74 58 10 3 3 0 3 13 39 39
0 0 0 0 0 0 0 0 0 0 0 0 0 0 0 0 0 13 42 77 90 87 84 94 97 100 100 100 100 100 100 100 100 100 100 100 74 71 90 68 71 23 0 0 0 0 3 19 23
0 0 0 0 0 0 0 0 0 0 0 0 0 0 0 0 0 6 26 61 87 84 77 81 90 97 97 97 100 100 100 100 100 100 100 68 0 3 45 71 81 55 10 3 0 0 0 0 0
0 0 0 0 0 0 0 0 0 0 0 0 0 0 0 0 0 0 6 29 71 90 77 65 65 65 61 65 71 100 87 97 97 77 68 16 0 0 3 3 55 26 10 0 0 0 0 0 0
0 0 0 0 0 0 0 0 0 0 0 0 0 0 0 0 0 0 0 3 16 48 81 77 52 52 45 42 52 55 58 74 74 61 39 13 0 0 0 0 0 0 0 0 0 0 0 0 0
0 0 0 0 0 0 0 0 0 0 0 0 0 0 0 0 0 0 0 0 0 13 45 65 65 61 52 39 35 32 23 39 35 39 32 6 0 0 0 0 0 0 0 0 0 0 0 0 0
0 0 0 0 0 0 0 0 0 0 0 0 0 0 0 0 0 0 0 0 0 0 6 29 58 65 61 48 29 16 13 10 3 6 13 6 0 0 0 0 0 0 0 0 0 0 0 0 0
0 0 0 0 0 0 0 0 0 0 0 0 0 0 0 0 0 0 0 0 0 0 0 3 6 32 45 39 19 13 10 13 6 0 3 3 0 0 0 0 0 0 0 0 0 0 0 0 0
0 0 0 0 0 0 0 0 0 0 0 0 0 0 0 0 0 0 0 0 0 0 0 0 3 3 13 29 23 16 10 10 6 0 0 0 0 0 0 0 0 0 0 0 0 0 0 0 0
0 0 0 0 0 0 0 0 0 0 0 0 0 0 0 0 0 0 0 0 0 0 0 0 3 0 3 3 10 13 13 16 3 0 0 0 0 0 0 0 0 0 0 0 0 0 0 0 0
0 0 0 0 0 0 0 0 0 0 0 0 0 0 0 0 0 0 0 0 0 0 0 0 0 3 0 0 0 3 6 6 3 3 0 0 0 0 0 0 0 0 0 0 0 0 0 0 0
0 0 0 0 0 0 0 0 0 0 0 0 0 0 0 0 0 0 0 0 0 0 0 0 0 0 0 0 0 0 3 3 3 6 3 3 0 0 0 0 0 0 0 0 0 0 0 0 0
0 0 0 0 0 0 0 0 0 0 0 0 0 0 0 0 0 0 0 0 0 0 0 0 0 0 0 0 0 3 3 6 10 6 3 3 0 0 0 0 0 0 0 0 0 0 0 0 0
0 0 0 0 0 0 0 0 0 0 0 0 0 0 0 0 0 0 0 0 0 0 0 0 0 0 0 0 0 0 6 3 3 3 3 3 0 0 0 0 0 0 0 0 0 0 0 0 0
0 0 0 0 0 0 0 0 0 0 0 0 0 0 0 0 0 0 0 0 0 0 0 0 0 0 0 0 0 0 0 3 3 3 3 3 0 0 0 0 0 0 0 0 0 0 0 0 0
0 0 0 0 0 0 0 0 0 0 0 0 0 0 0 0 0 0 0 0 0 0 0 0 0 0 0 0 0 0 3 3 3 3 3 3 0 0 0 0 0 0 0 0 0 0 0 0 0
0 0 0 0 0 0 0 0 0 0 0 0 0 0 0 0 0 0 0 0 0 0 0 0 0 0 0 0 0 0 0 3 3 3 3 3 0 0 0 0 0 0 0 0 0 0 0 0 0
0 0 0 0 0 0 0 0 0 0 0 0 0 0 0 0 0 0 0 0 0 0 0 0 0 0 0 0 0 0 0 0 3 3 3 3 3 0 0 0 0 0 0 0 0 0 0 0 0
0 0 0 0 0 0 0 0 0 0 0 0 0 0 0 0 0 0 0 0 0 0 0 0 0 0 0 0 0 0 0 0 0 0 0 0 0 0 0 0 0 0 0 0 0 0 0 0 0
0 0 0 0 0 0 0 0 0 0 0 0 0 0 0 0 0 0 0 0 0 0 0 0 0 0 0 0 0 0 0 0 0 0 0 0 0 0 0 0 0 0 0 0 0 0 0 0 0
0 0 0 0 0 0 0 0 0 0 0 0 0 0 0 0 0 0 0 0 0 0 0 0 0 0 0 0 0 0 0 0 0 0 0 0 0 0 0 0 0 0 0 0 0 0 0 0 0
0 0 0 0 0 0 0 0 0 0 0 0 0 0 0 0 0 0 0 0 0 0 0 0 0 0 0 0 0 0 0 0 0 0 0 0 0 0 0 0 0 0 0 0 0 0 0 0 0
0 0 0 0 0 0 0 0 0 0 0 0 0 0 0 0 0 0 0 0 0 0 0 0 0 0 0 0 0 0 0 0 0 0 0 0 0 0 0 0 0 0 0 0 0 0 0 0 0
Height
5924 5924 5924 5925 5925 5924 5922 5922 5921 5922 5923 5923 5922 5921 5921 5921 5922 5923 5921 5919 5919 5919 5919 5919 5919 5919 5919 5918 5918 5917 5916 5915 5914 5914 5913 5912 5910 5909 5908 5907 5906 5906 5905 5905 5904 5904 5904 5904 5903
5925 5924 5925 5925 5925 5924 5924 5923 5922 5922 5923 5923 5923 5922 5921 5922 5921 5920 5920 5920 5920 5920 5920 5920 5920 5921 5920 5920 5920 5919 5919 5918 5917 5916 5915 5914 5912 5911 5910 5909 5908 5907 5906 5906 5905 5904 5904 5904 5904
5925 5925 5926 5925 5924 5924 5924 5923 5922 5923 5923 5923 5923 5923 5923 5922 5921 5920 5920 5921 5921 5921 5921 5922 5922 5922 5922 5922 5922 5921 5921 5920 5919 5918 5917 5916 5915 5913 5912 5911 5909 5908 5907 5906 5906 5905 5904 5904 5904
5926 5927 5927 5926 5925 5924 5923 5923 5923 5924 5924 5924 5923 5923 5923 5923 5922 5920 5920 5920 5921 5922 5922 5922 5922 5923 5923 5923 5923 5923 5922 5921 5921 5920 5919 5918 5917 5915 5914 5912 5911 5910 5909 5908 5906 5906 5905 5904 5903
5926 5927 5927 5926 5925 5924 5923 5922 5923 5924 5924 5924 5923 5923 5923 5923 5921 5920 5919 5920 5921 5922 5922 5923 5923 5923 5923 5924 5924 5924 5923 5923 5922 5921 5921 5920 5918 5917 5916 5914 5913 5912 5911 5909 5908 5907 5906 5905 5904
5926 5927 5927 5926 5925 5924 5923 5923 5923 5924 5924 5923 5923 5923 5923 5923 5922 5920 5919 5920 5921 5922 5922 5923 5923 5923 5923 5924 5924 5924 5924 5923 5923 5922 5921 5921 5920 5919 5917 5916 5915 5914 5913 5911 5910 5909 5907 5906 5905
5926 5926 5925 5925 5925 5924 5924 5923 5923 5923 5924 5924 5923 5923 5922 5922 5922 5920 5919 5920 5921 5921 5922 5922 5923 5923 5923 5923 5924 5924 5924 5923 5923 5922 5922 5921 5920 5919 5918 5917 5916 5915 5914 5913 5912 5911 5909 5908 5906
5925 5926 5925 5924 5924 5924 5923 5922 5922 5923 5924 5924 5923 5922 5922 5922 5922 5921 5919 5919 5920 5921 5921 5922 5922 5922 5923 5923 5923 5923 5923 5923 5923 5922 5922 5921 5920 5919 5918 5917 5917 5916 5915 5914 5913 5912 5911 5909 5908
5924 5925 5924 5924 5923 5923 5922 5921 5921 5922 5922 5922 5922 5922 5921 5921 5921 5921 5920 5919 5919 5920 5920 5920 5921 5921 5922 5922 5922 5922 5922 5922 5922 5922 5921 5920 5919 5919 5918 5917 5916 5915 5915 5914 5913 5912 5911 5910 5909
5923 5923 5924 5924 5923 5922 5921 5920 5920 5920 5920 5921 5921 5920 5920 5920 5920 5920 5921 5919 5918 5919 5919 5919 5919 5920 5920 5920 5920 5920 5920 5920 5920 5920 5920 5919 5918 5918 5917 5916 5915 5914 5914 5913 5912 5912 5911 5910 5909
5921 5922 5922 5922 5921 5920 5919 5919 5918 5918 5917 5918 5918 5918 5918 5918 5918 5918 5919 5919 5919 5918 5917 5917 5917 5917 5917 5918 5918 5918 5918 5918 5918 5918 5918 5917 5916 5916 5915 5914 5913 5913 5912 5912 5911 5911 5910 5909 5909
5919 5919 5920 5919 5918 5917 5916 5916 5916 5915 5914 5914 5914 5914 5915 5915 5915 5915 5915 5916 5917 5917 5917 5916 5915 5915 5914 5915 5915 5915 5915 5915 5915 5915 5915 5914 5913 5912 5912 5912 5911 5910 5910 5910 5909 5908 5908 5908 5907
5916 5915 5915 5915 5914 5913 5912 5912 5912 5912 5910 5909 5909 5909 5910 5910 5910 5911 5912 5912 5913 5914 5914 5915 5914 5913 5912 5912 5912 5912 5912 5912 5911 5911 5911 5911 5910 5909 5908 5908 5908 5907 5907 5907 5907 5906 5905 5905 5905
5912 5911 5910 5910 5909 5909 5909 5908 5908 5908 5907 5905 5904 5904 5904 5904 5904 5905 5906 5907 5908 5909 5909 5910 5910 5910 5909 5909 5909 5908 5908 5907 5907 5907 5907 5907 5906 5905 5904 5904 5904 5903 5903 5903 5903 5902 5901 5901 5902
5907 5907 5906 5905 5905 5905 5904 5904 5903 5902 5902 5900 5898 5897 5897 5898 5898 5898 5898 5900 5901 5902 5903 5904 5904 5905 5905 5904 5904 5904 5903 5903 5903 5903 5903 5902 5902 5902 5900 5899 5899 5899 5898 5898 5898 5898 5897 5897 5898
5903 5902 5901 5899 5898 5897 5899 5897 5896 5896 5895 5893 5891 5890 5889 5889 5889 5890 5891 5891 5892 5893 5895 5896 5897 5898 5899 5899 5899 5899 5899 5898 5898 5898 5898 5897 5897 5897 5896 5895 5894 5894 5893 5893 5893 5893 5893 5893 5893
5897 5896 5894 5893 5891 5890 5890 5889 5888 5887 5885 5882 5880 5879 5879 5879 5880 5881 5882 5883 5884 5885 5885 5887 5888 5890 5891 5892 5893 5893 5893 5892 5892 5892 5892 5892 5891 5890 5890 5890 5890 5889 5889 5889 5889 5889 5888 5888 5888
5892 5890 5888 5886 5884 5883 5882 5881 5879 5876 5873 5870 5869 5868 5868 5869 5870 5871 5873 5874 5875 5875 5876 5877 5878 5880 5882 5884 5885 5885 5886 5886 5885 5884 5885 5885 5885 5884 5883 5883 5884 5884 5884 5884 5883 5883 5882 5882 5882
5885 5883 5882 5879 5876 5875 5873 5871 5868 5864 5862 5860 5859 5859 5859 5860 5861 5862 5863 5863 5864 5865 5866 5867 5868 5870 5872 5873 5875 5877 5878 5878 5878 5877 5876 5876 5877 5876 5876 5876 5876 5877 5877 5877 5877 5876 5876 5876 5876
5878 5877 5875 5873 5869 5867 5863 5860 5857 5855 5852 5851 5850 5849 5849 5849 5850 5851 5852 5852 5853 5854 5855 5856 5858 5859 5861 5863 5865 5867 5868 5869 5870 5869 5867 5867 5867 5868 5869 5868 5868 5869 5870 5870 5870 5870 5869 5869 5869
5873 5871 5869 5867 5864 5859 5856 5852 5849 5845 5843 5841 5839 5837 5836 5836 5837 5838 5839 5841 5842 5842 5844 5845 5847 5849 5851 5852 5854 5856 5858 5859 5860 5860 5859 5858 5857 5858 5858 5859 5859 5861 5861 5861 5862 5863 5863 5862 5863
5868 5865 5862 5859 5857 5853 5850 5844 5840 5836 5833 5830 5828 5825 5824 5823 5824 5824 5826 5828 5829 5831 5832 5834 5836 5838 5840 5842 5844 5845 5847 5849 5850 5850 5849 5849 5846 5846 5848 5849 5851 5852 5853 5853 5854 5855 5855 5856 5856
5863 5859 5857 5854 5850 5846 5842 5837 5833 5828 5824 5820 5817 5815 5813 5812 5812 5812 5814 5816 5817 5819 5821 5824 5826 5828 5830 5832 5834 5836 5838 5840 5841 5842 5842 5842 5840 5838 5839 5840 5842 5843 5844 5845 5845 5846 5847 5848 5848
5859 5855 5852 5848 5844 5840 5835 5830 5825 5819 5815 5811 5808 5805 5803 5803 5803 5802 5803 5805 5808 5809 5812 5814 5816 5818 5820 5822 5824 5826 5829 5831 5833 5834 5835 5835 5835 5834 5832 5831 5833 5835 5836 5837 5838 5838 5839 5840 5840
5855 5852 5848 5843 5839 5835 5830 5824 5819 5812 5807 5803 5800 5798 5796 5795 5795 5795 5796 5798 5799 5802 5804 5806 5808 5810 5812 5814 5816 5818 5820 5822 5824 5826 5827 5828 5827 5827 5826 5826 5826 5826 5827 5828 5829 5830 5831 5831 5832
5852 5849 5845 5841 5835 5831 5825 5820 5815 5808 5802 5797 5794 5791 5790 5789 5788 5789 5790 5791 5793 5795 5796 5798 5800 5802 5803 5806 5808 5810 5812 5814 5816 5817 5818 5819 5819 5819 5818 5818 5818 5818 5819 5820 5821 5822 5822 5823 5823
5849 5845 5841 5837 5832 5828 5823 5818 5812 5805 5800 5795 5791 5788 5786 5784 5784 5784 5784 5785 5786 5787 5789 5790 5792 5793 5795 5797 5799 5802 5804 5806 5807 5808 5809 5810 5810 5810 5809 5810 5810 5811 5811 5812 5813 5813 5813 5814 5815
5848 5843 5839 5835 5831 5826 5822 5817 5812 5806 5801 5795 5791 5788 5785 5783 5781 5780 5780 5780 5780 5781 5782 5783 5784 5785 5788 5790 5792 5794 5796 5798 5799 5800 5800 5801 5801 5801 5801 5802 5802 5802 5803 5804 5804 5804 5805 5805 5806
5847 5843 5839 5835 5831 5827 5822 5819 5812 5807 5802 5797 5793 5789 5786 5783 5782 5780 5779 5778 5777 5777 5777 5777 5778 5779 5781 5783 5785 5787 5789 5790 5791 5792 5792 5793 5792 5793 5793 5793 5793 5793 5794 5794 5795 5796 5796 5797 5797
5848 5844 5840 5837 5832 5828 5823 5822 5813 5809 5805 5800 5796 5793 5789 5787 5784 5782 5780 5779 5778 5777 5777 5776 5776 5777 5777 5779 5780 5782 5783 5784 5785 5785 5785 5785 5785 5785 5785 5786 5786 5786 5786 5787 5787 5788 5788 5789 5790
Wind_Speed
5 4 4 4 3 2 4 5 6 7 8 8 7 7 7 5 3 3 5 6 6 7 7 7 8 9 9 10 11 12 13 14 15 16 17 16 16 15 13 12 10 8 7 6 4 3 2 3 4
6 5 4 3 3 4 4 4 5 6 7 6 6 6 6 6 3 1 2 4 5 6 6 6 7 7 7 8 9 10 11 13 14 15 16 16 16 16 15 13 11 9 7 6 5 4 2 1 3
6 6 5 3 3 3 4 4 3 4 6 6 6 5 5 5 3 2 1 3 4 5 5 6 6 6 6 6 7 7 8 10 11 13 14 15 15 15 15 15 13 11 9 7 6 5 4 2 1
5 5 3 3 2 1 2 3 3 4 5 5 5 5 4 3 3 2 2 3 3 4 4 5 5 5 5 5 5 5 5 6 7 9 11 12 13 14 14 14 14 13 11 10 8 7 6 4 3
2 1 2 2 2 3 3 3 4 4 5 5 5 5 4 4 3 2 1 3 4 4 4 4 5 5 5 5 4 3 2 2 3 4 6 7 10 11 11 12 12 12 12 12 11 10 9 7 5
2 2 1 2 2 3 3 4 4 4 4 3 4 4 4 4 3 2 1 2 3 4 4 4 4 5 5 5 5 4 3 2 2 3 3 2 4 6 7 8 9 10 11 12 12 12 11 9 7
5 3 3 5 4 3 4 5 5 4 3 2 3 4 4 4 4 4 2 2 2 4 5 5 5 5 5 5 5 5 5 5 5 5 5 5 4 3 3 4 6 6 7 9 10 11 11 10 9
8 7 7 7 8 6 7 8 8 7 5 3 4 4 4 3 3 4 3 2 2 4 6 6 7 6 6 6 6 6 7 7 7 7 8 8 8 7 6 5 4 4 5 6 7 8 9 9 9
12 11 10 8 9 9 10 11 11 10 8 7 6 6 6 5 3 1 1 2 2 4 6 7 8 8 8 8 8 8 8 9 9 9 9 10 10 10 9 8 7 6 6 6 6 6 7 8 8
14 14 12 11 12 13 12 13 13 13 12 10 10 10 9 8 7 5 3 2 4 4 5 6 7 8 8 8 9 10 10 11 11 11 12 12 13 12 12 11 11 10 9 8 8 7 7 7 8
15 14 13 13 14 14 15 16 16 16 17 16 14 13 13 12 11 10 8 7 6 7 7 7 7 7 7 7 8 10 11 12 13 13 14 15 16 15 15 15 14 13 13 12 12 11 9 9 9
15 15 14 15 17 19 20 19 18 18 20 20 20 18 17 17 16 14 13 13 12 10 9 9 9 9 9 8 8 9 10 11 12 14 15 17 18 18 18 18 17 16 16 16 16 15 14 11 10
17 17 16 17 19 22 22 22 21 20 22 24 24 24 23 22 21 20 19 17 17 15 14 12 12 12 12 11 12 12 11 11 12 13 14 16 19 20 20 20 20 19 19 19 19 19 18 15 13
20 21 21 21 22 23 23 24 24 23 24 26 27 28 28 27 26 25 24 22 21 20 18 17 15 15 15 14 14 15 14 14 14 14 15 16 18 20 22 22 22 23 22 22 21 21 20 19 16
23 24 25 26 26 25 26 26 26 27 27 28 30 31 31 30 29 29 28 27 25 24 23 21 20 19 18 18 17 17 17 17 17 17 17 18 18 20 22 23 23 25 25 24 23 22 21 20 19
25 26 27 28 29 29 29 29 29 29 29 31 32 34 34 33 33 32 31 31 30 29 28 26 25 23 22 22 21 20 20 21 20 20 19 20 21 21 22 23 24 25 25 25 23 23 23 23 22
27 28 29 29 30 30 30 31 31 31 32 33 35 37 38 37 36 36 35 35 34 33 33 32 30 28 27 26 24 24 24 24 25 24 23 23 24 24 24 24 24 25 25 25 24 24 24 25 25
25 27 28 29 30 30 31 32 34 36 38 39 40 40 39 39 39 38 38 38 38 38 38 37 36 34 32 31 29 28 28 28 28 29 29 27 27 27 27 26 26 26 25 25 25 25 25 27 27
23 23 24 26 28 29 30 32 35 39 40 42 44 45 45 44 42 40 41 42 42 42 42 41 40 39 38 37 35 33 32 31 32 33 34 32 30 30 30 29 28 27 27 26 25 25 26 27 28
22 22 22 23 25 27 29 32 35 38 41 43 45 46 48 46 44 43 43 42 43 44 44 44 43 43 42 40 39 37 35 35 35 35 35 35 33 32 32 31 29 28 28 28 26 25 25 25 26
23 23 23 23 24 27 30 33 36 39 41 43 45 46 47 47 45 43 43 43 43 43 44 43 43 43 42 41 40 39 37 36 35 36 35 35 35 34 31 31 29 28 27 26 25 24 23 24 25
20 21 21 22 23 25 29 33 36 38 39 41 44 46 46 45 43 42 43 43 44 44 43 42 42 41 41 40 39 38 37 36 35 35 33 34 33 33 30 29 28 27 26 25 24 24 23 23 25
19 19 19 21 24 26 28 31 32 33 35 38 39 42 43 42 40 39 38 39 41 42 42 41 40 40 39 39 38 36 35 34 33 32 32 32 32 32 31 30 30 28 26 25 24 23 23 24 24
18 19 20 21 22 22 24 26 27 27 29 31 34 37 38 37 34 31 30 32 35 36 38 39 38 38 38 37 36 35 34 33 32 32 31 31 32 32 32 32 31 29 27 26 25 24 23 24 25
18 18 18 18 19 19 21 22 23 23 24 25 26 27 30 32 32 28 27 25 27 30 33 35 36 37 38 37 36 35 35 34 33 33 32 33 33 33 34 33 31 30 28 27 25 25 25 25 26
16 15 15 16 16 16 17 19 20 21 22 21 20 20 20 21 23 24 24 24 25 27 30 33 35 36 37 38 38 37 36 36 35 35 35 35 36 35 35 33 32 31 29 27 26 26 26 27 29
15 16 15 14 15 15 16 16 17 19 18 17 16 14 13 13 14 16 17 19 22 25 27 31 33 35 37 38 39 39 39 38 38 38 38 38 38 37 35 33 32 32 30 29 28 28 29 30 30
15 16 15 14 15 15 15 16 17 16 16 15 14 14 12 11 10 10 11 12 15 19 22 26 29 32 34 36 38 39 40 40 40 40 39 37 36 35 34 33 33 32 32 31 31 31 31 31 31
17 17 15 14 15 15 15 17 17 17 16 16 16 15 14 11 9 7 6 7 8 10 12 15 18 21 25 29 31 33 35 36 36 35 33 32 32 31 30 29 30 30 30 30 31 31 31 32 32
18 17 16 16 17 17 16 18 18 18 17 17 17 17 16 13 11 11 9 6 4 1 2 4 7 9 12 16 18 20 22 23 24 25 25 25 24 24 24 24 24 25 25 26 26 27 28 28 27
Wind_Direction
52 58 54 43 18 317 328 349 10 22 42 44 37 30 33 46 52 70 88 90 93 101 105 105 100 96 94 89 83 78 74 71 68 66 64 64 64 64 66 68 73 77 78 77 82 101 152 184 198
38 42 43 5 307 289 308 330 357 4 21 35 34 23 14 31 32 10 104 112 106 111 118 118 114 107 103 100 93 85 79 76 73 70 68 66 65 64 64 67 70 74 78 78 76 78 87 162 204
40 43 33 341 285 288 302 313 335 2 9 15 17 22 11 13 15 300 192 149 129 123 129 132 133 127 119 115 107 97 86 81 77 75 71 68 66 63 63 63 66 68 70 71 71 69 65 75 157
53 45 25 352 12 355 329 337 346 12 19 13 9 16 23 14 13 318 245 181 165 147 142 144 150 151 145 137 130 116 95 83 77 74 72 70 67 64 63 62 62 62 63 63 64 63 61 67 83
85 60 333 319 20 24 11 1 10 33 37 23 19 19 23 27 17 344 273 206 190 182 166 161 163 169 173 175 172 167 146 86 64 57 62 67 67 64 62 61 60 59 58 57 57 58 58 60 68
205 241 282 316 345 359 356 350 356 43 60 30 17 16 22 31 36 9 310 245 210 212 200 192 187 185 188 197 208 220 233 256 298 326 342 15 46 53 53 56 57 56 55 53 52 53 54 57 61
236 259 278 298 305 315 308 315 320 348 36 24 354 0 6 20 47 41 2 302 243 231 230 225 224 218 213 217 228 240 252 263 277 290 294 296 305 332 2 27 39 43 47 48 45 46 46 47 51
241 246 260 282 293 293 285 291 300 311 322 319 320 327 330 344 32 47 22 335 267 244 244 242 244 245 243 243 247 253 259 267 275 285 289 289 289 293 300 312 336 357 12 24 29 32 33 32 33
247 249 255 269 280 283 279 282 291 299 303 302 295 292 294 298 303 346 16 324 277 251 252 255 256 257 257 258 260 262 265 269 272 278 285 286 287 289 289 292 300 310 323 338 352 1 9 12 14
255 257 262 270 275 275 277 282 290 294 294 289 281 277 277 280 278 272 257 268 274 260 248 248 252 258 263 266 269 269 271 272 274 276 278 281 284 286 287 287 290 294 298 304 313 322 332 340 346
263 265 268 268 271 273 274 277 281 284 284 281 278 275 272 274 275 273 267 257 257 263 263 258 253 253 257 262 268 273 275 275 276 277 276 276 278 281 282 283 285 288 290 292 296 300 306 315 323
268 268 265 264 266 270 273 274 275 278 280 279 276 273 272 271 271 269 266 263 258 254 256 261 262 265 268 269 270 271 273 275 275 276 274 273 273 275 278 280 283 286 287 287 287 287 290 297 306
264 265 261 258 257 261 266 270 272 272 273 275 275 274 272 270 269 266 262 259 258 257 254 252 255 259 264 268 270 272 273 271 271 272 271 270 270 271 274 276 279 281 283 284 284 282 281 284 292
263 264 263 261 259 263 268 272 273 271 269 271 273 273 272 271 269 268 265 260 256 254 253 252 251 253 258 262 268 272 276 276 273 270 269 267 267 268 270 272 274 276 278 280 280 279 279 280 286
266 268 269 269 269 269 269 269 270 270 269 268 269 269 269 268 268 267 266 264 260 256 253 249 248 249 253 260 266 271 274 274 273 272 269 266 264 263 265 270 272 274 276 279 280 279 278 276 277
273 274 275 276 275 273 271 271 268 267 265 267 266 264 263 262 262 263 264 264 263 260 257 254 252 251 253 257 263 267 271 272 271 269 268 267 265 262 261 263 267 270 273 275 276 275 273 271 273
280 280 279 278 277 277 274 271 266 266 266 266 263 260 256 256 258 259 261 262 263 263 262 261 260 259 257 258 261 262 264 267 269 269 267 267 267 265 262 259 259 260 264 267 269 271 269 270 271
283 283 283 282 280 279 276 272 269 268 267 265 263 259 255 256 258 260 261 262 262 262 264 264 264 264 264 263 264 262 261 262 266 269 268 266 265 265 263 261 258 257 259 261 264 267 267 267 268
287 286 286 286 285 283 279 274 272 271 270 268 266 262 262 264 265 265 264 263 262 261 260 262 263 264 264 264 264 263 262 262 264 267 268 265 263 263 262 261 258 257 258 260 264 266 268 268 264
297 297 296 293 290 287 282 278 276 275 274 273 272 269 269 270 268 266 265 263 262 260 259 259 260 261 262 263 263 263 261 260 260 264 266 266 265 264 262 260 259 258 258 259 263 265 269 268 263
304 302 300 294 289 286 284 282 282 281 278 277 275 273 272 270 267 263 261 259 259 258 258 258 258 258 259 260 260 260 260 259 260 260 263 264 265 266 265 260 257 258 258 258 260 262 267 267 261
306 305 303 299 294 288 285 283 284 283 280 278 274 272 271 270 267 263 258 255 253 253 254 254 255 255 256 256 256 256 256 256 257 259 261 263 265 270 266 263 263 262 261 261 259 259 265 266 262
313 310 308 306 301 296 291 287 288 285 280 275 271 269 268 268 265 261 258 254 250 248 248 249 250 252 253 253 253 252 251 252 253 257 262 266 269 273 269 270 268 267 266 264 263 261 265 265 266
319 317 315 312 308 304 303 299 299 293 286 280 274 269 265 263 264 263 260 254 250 247 245 245 246 247 248 249 250 250 249 250 253 257 263 267 272 276 272 272 272 268 268 266 263 264 265 263 266
326 324 321 321 320 317 318 314 312 306 297 292 285 277 274 269 266 271 271 264 254 250 248 246 245 245 245 246 247 248 250 252 255 259 263 268 272 275 274 274 272 271 268 266 264 262 264 263 264
336 337 335 333 333 333 335 330 325 319 315 308 302 293 286 278 276 278 280 271 262 257 252 249 248 247 247 246 247 248 251 254 257 261 265 269 272 274 275 272 269 270 267 266 264 263 262 264 265
351 355 353 351 351 352 354 351 346 338 336 333 327 322 317 310 297 290 282 271 264 259 257 255 253 251 250 249 248 250 252 256 260 263 267 270 272 273 272 269 267 268 266 266 266 265 262 263 263
4 9 8 10 9 10 11 11 10 7 3 1 1 357 349 336 332 317 297 280 270 266 263 262 259 256 254 253 253 253 256 259 262 265 268 270 272 271 269 267 266 263 264 263 264 264 264 261 260
21 19 19 23 27 26 27 29 28 27 26 26 27 23 20 17 11 4 341 312 294 284 273 265 265 261 258 257 257 259 260 262 264 266 269 270 270 269 266 264 264 262 262 261 260 260 259 258 256
27 26 32 35 36 36 38 41 39 38 39 37 37 36 38 43 45 48 49 46 52 16 301 271 268 263 260 256 257 259 261 262 264 266 268 268 268 267 264 263 261 259 257 256 256 256 253 251 249